Tracking 34406 objects as of 15-Jun-2026
HD Live streaming from Space Station
objects crossing your sky now

THORAD AGENA D DEB

Track THORAD AGENA D DEB now!
10-day predictions


NORAD ID: 5390
Int'l Code: 1970-025KV
Perigee: 909.4 km
Apogee: 981.1 km
Inclination: 100.1 °
Period: 103.8 minutes
Semi major axis: 7316 km
RCS: 0.0078 m2 (small)
Launch date: April 8, 1970
Source: United States (US)
Launch site: AIR FORCE WESTERN TEST RANGE (AFWTR)

Note: This is SATELLITE DEBRIS
Your satellite tracking list
Your tracking list is empty




NASA's NSSDC Master Catalog

Two Line Element Set (TLE):
1 05390U 70025KV  26165.88953527  .00000825  00000-0  73737-3 0  9993
2 05390 100.0764 214.2326 0048976 326.7872 213.3383 13.87301436808887
Source of the keplerian elements: AFSPC